Tracking 29892 objects as of 21-Nov-2024
HD Live streaming from Space Station
objects crossing your sky now

STARLINK-2129

Track STARLINK-2129 now!
10-day predictions
STARLINK-2129 is classified as:


NORAD ID: 47727
Int'l Code: 2021-017F
Perigee: 448.1 km
Apogee: 449.6 km
Inclination: 53.1 °
Period: 93.4 minutes
Semi major axis: 6819 km
RCS: Unknown
Launch date: March 4, 2021
Source: United States (US)
Launch site: AIR FORCE EASTERN TEST RANGE (AFETR)
Your satellite tracking list
Your tracking list is empty




NASA's NSSDC Master Catalog

Two Line Element Set (TLE):
1 47727U 21017F   24325.91668981  .00382834  00000-0  85644-2 0  9999
2 47727  53.0522  85.5855 0001132  54.9178  79.0681 15.41484994  5794
Source of the keplerian elements: AFSPC